This is the latest recevied weather packets stored in our database for station/object KA3WVU. If no packets are shown the sender has not sent any weather packets the latest 10 day(s).
| Time | Temp. | Humidity | Pressure | Rain* | Wind** | Luminosity | Snow |
|---|---|---|---|---|---|---|---|
| 1777584176 | 4.44° C | 93% | 1011.4 hPa | 0 mm | - | 29 W/m² | - |
| 1777583875 | 4.44° C | 93% | 1011.3 hPa | 0 mm | - | 43 W/m² | - |
| 1777583571 | 4.44° C | 92% | 1011.2 hPa | 0 mm | - | 29 W/m² | - |
| 1777583270 | 4.44° C | 91% | 1011.3 hPa | 0 mm | - | 15 W/m² | - |
| 1777582969 | 5° C | 92% | 1011.2 hPa | 0 mm | - | 16 W/m² | - |
| 1777582668 | 5° C | 92% | 1011.1 hPa | 0 mm | - | 14 W/m² | - |
| 1777582358 | 5° C | 92% | 1011 hPa | 0 mm | - | 15 W/m² | - |
| 1777582055 | 5° C | 91% | 1011 hPa | 0 mm | - | 20 W/m² | - |
| 1777581751 | 5° C | 91% | 1010.9 hPa | 0 mm | - | 54 W/m² | - |
| 1777581449 | 5.56° C | 92% | 1011 hPa | 0 mm | - | 66 W/m² | - |
| 1777581145 | 5° C | 91% | 1010.9 hPa | 0 mm | - | 85 W/m² | - |
| 1777580840 | 5° C | 93% | 1010.9 hPa | 0 mm | - | 115 W/m² | - |
| 1777580535 | 5° C | 91% | 1010.8 hPa | 0 mm | - | 107 W/m² | - |
| 1777580230 | 5° C | 91% | 1011 hPa | 0 mm | - | 82 W/m² | - |
| 1777579927 | 5° C | 92% | 1010.8 hPa | 0 mm | - | 62 W/m² | - |
| 1777579622 | 5° C | 92% | 1011 hPa | 0 mm | - | 41 W/m² | - |
| 1777579316 | 5° C | 91% | 1010.9 hPa | 0 mm | - | 30 W/m² | - |
| 1777579012 | 5° C | 92% | 1010.8 hPa | 0 mm | - | 36 W/m² | - |
| 1777578707 | 5° C | 91% | 1010.8 hPa | 0 mm | - | 45 W/m² | - |
| 1777578406 | 5° C | 92% | 1010.6 hPa | 0 mm | - | 29 W/m² | - |
| 1777578102 | 5° C | 92% | 1010.8 hPa | 0 mm | - | 30 W/m² | - |
| 1777577798 | 5° C | 92% | 1010.6 hPa | 0 mm | - | 47 W/m² | - |
| 1777577494 | 5° C | 92% | 1010.6 hPa | 0 mm | - | 104 W/m² | - |
| 1777577191 | 5° C | 94% | 1010.5 hPa | 0 mm | - | 97 W/m² | - |
| 1777576887 | 5° C | 94% | 1010.5 hPa | 0 mm | - | 58 W/m² | - |
* Rain latest hour (hover to see other rain measurements)
** Current wind speed in m/s (hover to see current wind gust speed)